Wind_Speed
3 4 3 4 4 5 6 6 6 7 8 8 8 9 10 10 10 11 11 11 10 11 11 12 12 12 11 10 11 10 10 10 11 10 10 9 8 8 9 9 8 9 10
3 4 3 3 3 5 6 7 7 8 9 9 8 9 9 9 9 10 11 10 10 11 11 12 12 12 11 11 10 10 10 10 10 10 9 10 9 9 10 10 9 9 9
4 4 3 3 4 4 6 7 8 9 9 9 8 8 8 9 9 9 9 10 11 11 12 13 13 12 11 11 11 10 11 10 11 11 11 11 10 10 10 10 10 10 10
4 4 4 4 4 5 6 7 7 8 8 8 8 8 8 9 8 9 9 10 11 12 12 12 12 12 11 10 10 10 11 11 12 12 11 11 12 12 12 11 11 11 11
6 5 5 5 6 6 6 6 6 7 7 7 7 8 8 8 8 8 9 10 10 11 11 12 12 12 11 11 10 11 11 11 12 12 12 11 12 12 12 12 12 12 12
6 7 7 7 6 6 7 6 6 6 6 6 6 6 7 8 8 8 8 9 10 11 12 12 12 13 12 12 11 12 12 12 12 12 12 12 12 13 13 14 13 13 13
7 7 8 7 7 7 8 7 6 6 5 5 6 7 7 8 9 9 9 9 10 10 11 12 12 13 13 13 13 13 12 12 12 12 12 13 13 14 14 15 15 15 15
7 8 8 9 9 8 8 8 7 6 6 7 7 8 9 9 10 9 9 9 10 10 11 12 13 13 14 13 13 14 14 13 13 13 13 14 14 15 14 15 15 15 15
8 8 9 10 9 9 9 9 9 8 8 8 8 9 9 9 10 9 9 9 10 10 10 10 12 13 13 14 14 14 15 14 14 14 15 14 15 15 15 16 16 16 17
9 10 10 10 10 10 10 10 10 10 9 9 9 10 10 10 10 11 11 11 11 11 11 12 12 13 14 14 15 15 15 16 16 16 15 15 15 16 16 17 18 18 19
10 11 11 11 11 11 11 11 11 10 10 10 10 10 10 11 11 12 13 13 12 12 13 13 14 14 15 15 14 15 16 17 17 17 17 17 17 17 17 17 18 18 18
12 12 12 13 12 12 12 11 11 10 10 10 10 10 10 11 12 13 13 13 14 14 14 15 15 15 16 16 16 16 16 16 17 18 18 18 18 19 19 19 19 19 19
14 14 15 14 13 13 13 12 12 12 11 11 11 12 12 12 13 13 14 14 15 15 15 16 16 17 17 17 17 18 18 17 18 18 18 19 19 19 20 20 20 20 20
14 15 15 15 14 14 13 13 13 13 13 13 13 13 14 14 14 14 14 14 14 15 16 16 16 17 17 18 18 19 19 19 19 19 19 19 20 20 20 19 19 19 20
15 15 15 15 15 15 15 15 14 14 15 15 15 15 15 15 16 16 15 15 16 16 17 18 18 18 18 19 20 20 19 20 19 19 19 20 20 20 20 20 20 20 20
16 16 16 16 16 16 16 16 16 15 15 16 16 16 17 17 16 17 17 17 18 18 19 19 19 20 20 21 21 22 21 21 20 20 20 20 20 20 20 20 21 21 21
17 17 17 17 17 17 17 17 16 16 16 17 18 18 19 19 18 18 18 18 19 19 19 20 20 21 21 22 21 22 22 22 21 21 21 22 21 21 21 21 21 21 21
16 17 17 17 17 17 17 17 17 17 17 17 17 18 18 19 19 19 19 20 20 20 20 21 21 22 22 23 22 23 23 24 23 22 23 23 23 23 22 22 23 23 23
18 18 18 18 18 18 18 18 18 18 19 19 19 18 18 17 18 19 19 20 21 22 21 22 22 23 23 23 24 24 25 25 24 24 24 23 23 23 24 24 24 25 25
19 20 20 20 20 19 19 19 19 19 19 19 19 18 18 18 19 19 20 20 21 22 22 23 23 23 23 24 24 24 24 25 25 24 24 24 24 25 26 26 26 26 25
21 22 21 20 20 20 20 20 20 20 20 19 19 19 20 20 21 21 21 21 21 22 23 23 23 23 23 23 24 25 25 24 24 25 26 26 27 27 28 28 27 27 26
22 22 22 21 21 21 21 21 21 21 21 20 20 20 20 20 21 21 21 21 22 23 24 24 23 23 24 24 24 24 25 25 25 25 26 27 28 29 28 28 27 27 27
23 24 22 22 23 23 23 22 22 22 22 21 21 21 21 21 21 21 21 22 22 23 24 24 24 24 25 25 26 25 25 26 26 27 28 28 29 29 30 29 29 29 28
25 25 24 24 24 24 24 23 23 23 23 23 23 22 22 23 23 23 23 23 23 24 23 24 25 25 26 26 26 27 27 28 28 28 28 29 29 30 30 30 30 30 30
26 27 26 25 25 25 24 23 23 23 23 24 24 24 24 24 24 24 24 24 24 24 24 25 26 26 26 27 28 29 29 30 30 30 30 30 31 31 32 32 32 32 31
28 27 27 26 25 25 25 25 25 24 24 25 25 25 26 25 25 25 25 25 25 26 26 26 26 27 28 28 29 29 29 30 30 31 31 31 32 32 32 32 32 32 32
Wind_Direction
324 314 295 289 269 276 276 275 272 267 263 264 266 266 260 255 252 255 252 248 248 250 249 247 246 246 246 245 241 240 238 234 234 235 236 238 240 237 233 237 241 242 243
325 320 313 296 285 290 291 284 277 271 267 270 265 266 264 258 256 257 251 247 245 249 248 246 246 248 246 245 243 239 235 235 235 236 240 244 242 238 236 242 243 243 244
330 324 315 294 295 300 299 288 278 271 267 265 263 262 269 265 249 253 252 248 247 249 245 242 243 247 246 244 242 239 234 237 239 239 242 246 243 239 239 243 245 246 246
338 330 325 305 303 303 299 292 280 269 263 264 263 264 269 265 256 253 253 252 249 246 242 239 238 241 244 245 241 234 235 238 240 242 243 247 246 242 241 244 246 249 249
345 328 323 316 314 308 307 301 287 272 262 259 264 265 265 264 270 262 257 253 250 247 244 239 239 238 240 242 243 235 237 241 241 243 246 250 246 243 246 248 252 254 255
343 333 319 318 314 313 315 307 288 275 263 257 264 272 272 270 274 273 265 261 256 252 246 242 241 240 240 240 241 238 240 243 242 245 249 250 248 247 248 251 254 258 258
338 332 329 322 309 308 310 304 296 276 274 275 276 277 276 274 272 272 273 270 261 253 246 245 243 243 242 242 243 241 244 243 245 248 248 250 250 251 252 253 254 256 259
337 335 331 327 322 318 306 304 308 299 290 284 278 280 278 271 268 271 272 273 267 257 252 247 243 241 239 240 244 244 242 244 247 249 250 253 252 251 252 255 255 258 259
330 329 325 323 321 321 316 315 311 306 296 286 280 281 280 271 270 274 272 273 271 266 260 255 247 242 241 241 244 245 243 244 248 250 252 255 255 253 255 257 257 260 262
320 319 321 325 322 315 310 306 303 296 295 292 286 280 277 276 276 273 270 269 267 265 260 256 252 247 244 246 244 245 244 244 247 250 255 256 257 256 258 262 263 264 264
322 319 320 321 320 315 310 305 302 296 294 292 287 282 278 276 277 275 272 267 262 261 260 255 251 248 245 247 246 243 245 245 247 251 253 255 259 259 261 264 264 264 264
316 316 315 314 314 313 310 306 304 300 296 292 286 283 281 278 276 273 272 267 262 259 259 255 252 250 248 248 247 246 249 250 251 253 254 256 259 262 262 262 264 264 264
311 313 313 312 313 314 313 307 302 300 298 294 290 287 284 281 278 275 271 268 262 259 259 255 252 252 250 249 249 248 252 253 255 256 258 260 261 262 262 263 263 264 265
313 314 314 313 312 312 312 307 304 301 297 293 291 290 286 284 280 277 275 272 266 262 260 255 253 251 252 252 251 251 252 253 255 255 257 260 263 266 267 267 268 266 266
311 312 312 313 312 311 311 307 303 300 297 292 289 289 287 284 280 277 274 272 270 267 261 257 255 253 253 254 254 253 252 252 255 256 257 260 263 265 268 269 270 271 270
308 310 311 311 311 310 310 308 306 305 301 294 290 287 286 283 279 278 276 275 272 269 265 261 260 259 257 257 257 255 254 253 255 258 261 264 265 266 267 269 269 272 271
309 309 309 308 308 309 309 307 309 307 305 301 294 289 286 283 280 278 277 275 274 271 268 265 263 260 261 259 258 259 259 258 257 260 262 265 266 266 268 271 272 273 274
310 310 310 309 308 308 308 306 307 305 304 302 301 298 290 284 281 279 277 276 275 272 269 266 264 262 263 261 260 261 261 261 260 259 261 263 264 266 268 270 272 272 274
307 308 310 308 307 306 305 303 303 303 302 300 300 298 292 288 285 283 280 277 275 273 271 268 266 265 264 262 260 262 261 259 259 259 262 263 264 265 267 269 270 271 272
305 307 306 305 304 303 303 302 301 301 301 299 297 296 291 289 288 285 282 280 278 275 272 269 268 267 267 264 263 263 262 260 259 260 262 263 265 267 268 269 270 270 270
303 305 304 302 302 301 301 301 301 299 299 297 295 293 291 291 290 288 284 281 279 276 274 272 269 269 268 266 265 264 264 264 263 264 263 264 266 267 268 268 269 269 269
301 303 302 301 301 300 299 300 300 298 297 295 292 292 291 290 291 288 285 283 281 278 275 272 271 270 266 266 266 265 265 265 267 267 268 269 269 269 271 269 269 268 269
299 300 300 299 300 299 298 298 298 297 296 294 292 290 290 289 288 286 284 283 283 280 275 272 270 270 270 268 267 266 267 269 268 269 270 270 271 271 271 271 270 270 269
299 299 298 297 297 298 298 296 297 296 295 292 290 290 290 289 287 286 285 284 282 280 275 272 271 271 272 271 268 267 268 269 270 272 273 273 273 272 270 271 271 271 271
297 297 296 295 295 296 296 295 295 295 294 292 290 289 289 290 289 288 286 285 282 280 277 275 273 271 271 270 269 269 269 269 270 271 272 273 273 273 273 273 272 271 271
296 296 296 293 293 293 293 292 292 293 292 291 290 289 289 288 287 286 285 283 282 279 277 275 274 272 272 271 270 270 270 270 270 271 272 273 273 274 275 275 273 271 271
Height
5877 5876 5875 5874 5874 5874 5873 5873 5872 5872 5871 5871 5871 5871 5871 5871 5871 5871 5872 5872 5873 5874 5874 5875 5876 5877 5877 5878 5879 5879 5880 5881 5882 5883 5884 5885 5886 5887 5887 5888 5889 5889 5890
5877 5875 5874 5873 5873 5872 5872 5871 5870 5869 5869 5868 5868 5869 5868 5868 5868 5868 5869 5869 5870 5871 5871 5872 5873 5874 5875 5876 5876 5877 5878 5879 5880 5881 5882 5883 5884 5885 5886 5886 5887 5888 5888
5877 5875 5874 5873 5872 5871 5870 5868 5867 5867 5866 5866 5866 5866 5866 5866 5866 5866 5866 5866 5867 5867 5868 5869 5870 5871 5872 5873 5873 5874 5875 5877 5878 5879 5880 5881 5882 5883 5884 5884 5885 5886 5886
5876 5875 5873 5872 5871 5870 5868 5866 5865 5864 5863 5864 5864 5864 5864 5863 5863 5864 5864 5864 5864 5864 5865 5866 5867 5868 5869 5870 5870 5871 5873 5874 5876 5877 5878 5879 5880 5881 5882 5883 5883 5884 5884
5876 5875 5873 5871 5870 5868 5867 5865 5863 5862 5862 5862 5862 5862 5861 5861 5862 5862 5862 5861 5861 5861 5862 5863 5864 5866 5867 5868 5868 5869 5870 5872 5873 5874 5876 5877 5878 5879 5880 5881 5881 5882 5882
5876 5874 5873 5871 5869 5867 5865 5863 5862 5860 5860 5860 5860 5860 5860 5859 5860 5860 5859 5859 5858 5858 5859 5860 5861 5863 5864 5866 5867 5868 5869 5870 5871 5872 5873 5874 5875 5876 5877 5878 5879 5879 5879
5876 5874 5872 5870 5868 5867 5865 5863 5861 5860 5859 5859 5859 5859 5858 5858 5858 5858 5857 5857 5856 5856 5856 5857 5858 5860 5861 5863 5864 5866 5867 5868 5869 5870 5871 5872 5873 5874 5874 5875 5876 5876 5877
5875 5873 5872 5869 5867 5865 5864 5862 5860 5859 5858 5858 5858 5857 5857 5857 5856 5856 5856 5855 5854 5854 5854 5855 5856 5858 5859 5860 5861 5863 5864 5865 5866 5867 5868 5869 5870 5870 5871 5872 5872 5873 5873
5874 5872 5870 5869 5866 5864 5863 5861 5860 5858 5857 5856 5856 5856 5855 5855 5854 5854 5853 5853 5853 5852 5853 5853 5854 5855 5856 5858 5859 5860 5861 5862 5863 5864 5865 5866 5866 5867 5868 5868 5869 5869 5870
5873 5871 5869 5867 5865 5863 5861 5860 5858 5857 5856 5855 5854 5853 5853 5852 5852 5852 5851 5850 5850 5850 5850 5851 5852 5853 5854 5854 5855 5856 5857 5858 5859 5860 5861 5862 5863 5863 5864 5864 5864 5865 5865
5872 5869 5867 5865 5864 5862 5860 5858 5856 5855 5854 5853 5852 5851 5851 5850 5850 5849 5849 5848 5848 5848 5848 5848 5849 5849 5850 5851 5852 5853 5854 5855 5856 5857 5857 5858 5859 5859 5859 5860 5860 5860 5860
5870 5868 5865 5863 5861 5859 5858 5856 5854 5853 5851 5850 5849 5849 5848 5848 5847 5846 5846 5845 5845 5845 5845 5845 5846 5846 5847 5847 5848 5849 5850 5851 5852 5852 5853 5854 5854 5854 5855 5855 5855 5855 5856
5868 5865 5863 5861 5859 5857 5855 5853 5852 5850 5849 5848 5847 5846 5846 5845 5844 5843 5843 5842 5842 5841 5842 5842 5842 5843 5843 5844 5844 5845 5846 5847 5848 5848 5849 5849 5850 5850 5850 5850 5851 5851 5851
5865 5863 5861 5859 5856 5855 5853 5851 5849 5848 5846 5845 5844 5843 5842 5841 5840 5840 5839 5839 5838 5838 5838 5838 5838 5839 5839 5840 5840 5841 5842 5842 5843 5844 5844 5845 5845 5845 5845 5846 5846 5846 5846
5862 5860 5858 5856 5854 5852 5850 5848 5846 5845 5843 5842 5841 5840 5839 5838 5837 5836 5835 5835 5835 5834 5834 5834 5834 5835 5835 5835 5836 5836 5837 5838 5838 5839 5840 5840 5840 5840 5841 5841 5841 5841 5840
5859 5857 5855 5853 5851 5848 5847 5845 5843 5841 5839 5838 5836 5835 5835 5833 5832 5831 5831 5830 5830 5830 5829 5829 5829 5829 5830 5831 5831 5831 5831 5832 5833 5834 5835 5835 5835 5835 5836 5836 5836 5835 5835
5855 5853 5851 5849 5847 5845 5843 5841 5839 5837 5836 5834 5832 5831 5830 5828 5827 5826 5826 5825 5825 5825 5825 5825 5824 5824 5824 5825 5825 5826 5826 5827 5828 5828 5829 5830 5830 5830 5830 5830 5830 5830 5830
5852 5849 5847 5845 5843 5841 5839 5837 5835 5833 5831 5829 5827 5826 5824 5823 5822 5821 5821 5820 5819 5819 5819 5819 5818 5818 5818 5819 5819 5820 5820 5821 5821 5822 5823 5824 5824 5824 5824 5824 5824 5824 5823
5848 5845 5843 5841 5839 5837 5834 5832 5831 5828 5826 5824 5823 5821 5819 5818 5817 5815 5815 5814 5814 5813 5813 5813 5812 5813 5813 5813 5813 5814 5814 5814 5815 5816 5816 5817 5817 5818 5818 5818 5818 5817 5817
5844 5841 5839 5837 5834 5832 5830 5828 5826 5824 5821 5819 5817 5816 5814 5812 5811 5810 5809 5808 5807 5807 5807 5806 5806 5806 5806 5806 5807 5807 5807 5808 5808 5809 5809 5810 5810 5810 5811 5811 5811 5810 5810
5839 5837 5834 5832 5830 5827 5825 5823 5821 5819 5816 5814 5812 5810 5808 5807 5805 5804 5803 5802 5801 5800 5800 5800 5800 5800 5800 5800 5800 5800 5800 5801 5801 5802 5802 5802 5803 5803 5803 5803 5803 5803 5803
5834 5831 5829 5827 5824 5822 5820 5817 5815 5813 5811 5809 5807 5805 5803 5801 5799 5798 5797 5796 5795 5794 5794 5793 5793 5793 5793 5793 5793 5793 5793 5793 5794 5794 5794 5794 5794 5794 5794 5794 5795 5795 5795
5828 5826 5823 5821 5818 5816 5814 5811 5809 5807 5805 5803 5801 5799 5797 5795 5794 5792 5791 5789 5788 5787 5787 5786 5786 5786 5786 5786 5786 5786 5785 5786 5786 5786 5786 5786 5786 5786 5786 5786 5786 5786 5786
5822 5820 5817 5814 5812 5810 5807 5805 5803 5800 5798 5796 5794 5793 5791 5789 5787 5785 5784 5783 5781 5780 5779 5779 5779 5779 5778 5778 5778 5778 5777 5777 5778 5778 5778 5777 5777 5777 5777 5777 5777 5776 5776
5815 5813 5810 5808 5805 5803 5801 5798 5796 5794 5792 5790 5788 5786 5784 5782 5780 5779 5777 5776 5774 5773 5772 5771 5771 5770 5770 5770 5769 5769 5769 5769 5769 5769 5769 5769 5768 5768 5767 5767 5767 5767 5767
5808 5805 5803 5800 5798 5796 5794 5791 5789 5787 5785 5782 5780 5778 5776 5775 5773 5771 5769 5768 5767 5766 5765 5764 5763 5762 5762 5761 5761 5761 5760 5760 5760 5760 5759 5759 5759 5758 5758 5758 5757 5757 5757